Location: Br�ttisellen
(47.4227°N, 8.6287°E)
Time: 13:23:56
(UTC+00:00)

YAOGAN 1 - Pass Details

Date: 09 April 2020
Orbit: 618 x 620 km, 97.9° (Epoch: 28 May)

Event Time Altitude Azimuth Distance (km) Brightness Sun altitude
Rises 18:32:27 0° 187° (S) 2,884 5.9 -5.0°
Reaches altitude 10° 18:34:46 10° 196° (SSW) 1,984 5.2 -5.4°
Maximum altitude 18:38:45 36° 263° (W) 998 4.4 -6.0°
Drops below altitude 10° 18:42:46 10° 330° (NNW) 1,999 6.0 -6.6°
Sets 18:45:07 0° 339° (NNW) 2,911 6.7 -7.0°
